Showing default

ITASAT, 43786

Orbit data source: Space-Track

ITASAT, 43786 is a payload satellite owned by ITA (BR) in SSO that was launched on Mon, 03 Dec 2018 UTC via an FALCON 9 launch vehicle from the Air Force Western Test Range (AFWTR). Payload-class satellites include a variety of spacecraft equipped with specific instruments for various scientific and technological missions. These include communications satellites like Starlink; space stations such as the ISS; scientific satellites like the Hubble; Earth observation satellites from companies like Planet Labs, Umbra, and HawkEye 360; GPS; miniature CubeSats for education and research; and military/defense satellites.

Loading next visibility...
Identifier
43786, 2018-099AE
Orbit
SSO
Country
Flag of BRBR / BRAZ
Related business
Manufacturer
ITA
Mission
Operational Civil Technology
Bus & Motor
CUBESAT 6U, Unknown motor
Mass
8 kg wet, 8 kg dry
Launch date (UTC)
2018-12-03 (8 years ago)
Launch vehicle
FALCON 9
Launch site
Air Force Western Test Range (AFWTR)
Object type
Payload
Rocket body
Debris
Shape & HBR
Box, 0.2 m
Radar Cross Section
0.080 m², Medium (>0.1 m² and < 1m²)

Expand to show TLE details & history
Last TLE update: 15 hours ago

TLE from 15 hours ago
0 ITASAT
1 43786U 18099AE  26235.85318234  .00005380  00000-0  25384-3 0  9998
2 43786  97.3982 286.0281 0014026 113.7449 246.5258 15.19792675423189
Epoch: 2026-08-23T20:28Z
TLE epoch observation values (Epoch: 2026-08-23T20:28:34.954Z)
Latitude
-0.00009°
Longitude
6.73919°
Altitude
513.416 km
Speed
7.605 km/s
True Right ascension
19h 04m 06s
True Declination
0° 00' 00"
Sunlit
Object was in full shadow at epoch
Visualization orbit readout
Latitude
Unknown
Longitude
Unknown
Altitude
Unknown
Speed
Unknown
Apparent Right ascension
Unknown
Apparent Declination
Unknown
Sunlit
N/A
Visualization observer readout
Local Sidereal Time
02:50:13
Azimuth
Unknown
Elevation
Unknown
Doppler factor
Unknown
Orbital elements
Apogee altitude
513.085 km
Perigee altitude
493.78 km
Semi-major axis
6,881.569 km
Eccentricity
0.0014
Inclination
97.3982°
RAAN
286.0281°
Arg. of periapsis
113.7449°
True anomaly
246.37848°
Mean anomaly
246.5258°
Eccentric anomaly
246.45213°
Mean motion
3.802 °/min
Orbital period
94.69 mins
BSTAR
0.00025384
Loading maneuver chart data...
Computing Atmospheric mass density...
Loading historical data...
Loading historical data...
Loading historical data...
Loading historical data...
Loading historical data...
Loading historical data...
Loading historical data...

Documentation

Showing up to 5 results
|